Time,TemperatureF,DewpointF,PressureIn,WindDirection,WindDirectionDegrees,WindSpeedMPH,WindSpeedGustMPH,Humidity,HourlyPrecipIn,Conditions,Clouds,dailyrainin,SoftwareType,DateUTC
2013-01-27 00:01:00,28.0,17.0,-100.00,SE,125,6.0,7.0,61,0.00,,,-99.99,,2013-01-27 06:01:00,
2013-01-27 00:11:00,28.0,17.0,-100.00,SE,135,6.0,8.0,61,0.00,,,-99.99,,2013-01-27 06:11:00,
2013-01-27 00:21:00,28.0,17.0,-100.00,SE,135,7.0,12.0,62,0.00,,,-99.99,,2013-01-27 06:21:00,
2013-01-27 00:32:00,28.0,17.0,-100.00,SE,130,6.0,9.0,61,0.00,,,-99.99,,2013-01-27 06:32:00,
2013-01-27 00:41:00,28.0,17.0,-100.00,SE,130,6.0,9.0,61,0.00,,,-99.99,,2013-01-27 06:41:00,
2013-01-27 00:51:00,28.0,17.0,-100.00,ESE,115,4.0,7.0,62,0.00,,,-99.99,,2013-01-27 06:51:00,
2013-01-27 01:01:00,28.0,17.0,-100.00,ESE,115,4.0,7.0,62,0.00,,,-99.99,,2013-01-27 07:01:00,
2013-01-27 01:13:00,29.0,17.0,-100.00,SE,140,3.0,11.0,62,0.00,,,-99.99,,2013-01-27 07:13:00,
2013-01-27 01:21:00,29.0,17.0,-100.00,SE,145,6.0,10.0,62,0.00,,,-99.99,,2013-01-27 07:21:00,
2013-01-27 01:31:00,29.0,18.0,-100.00,SSE,155,4.0,7.0,61,0.00,,,-99.99,,2013-01-27 07:31:00,
2013-01-27 01:41:00,29.0,18.0,-100.00,SSE,155,4.0,7.0,61,0.00,,,-99.99,,2013-01-27 07:41:00,
2013-01-27 01:51:00,29.0,18.0,-100.00,SE,140,3.0,9.0,61,0.00,,,-99.99,,2013-01-27 07:51:00,
2013-01-27 02:01:00,29.0,18.0,-100.00,SE,140,3.0,9.0,61,0.00,,,-99.99,,2013-01-27 08:01:00,
2013-01-27 02:11:00,30.0,18.0,-100.00,SE,130,6.0,11.0,60,0.00,,,-99.99,,2013-01-27 08:11:00,
2013-01-27 02:22:00,30.0,18.0,-100.00,SSE,160,4.0,11.0,61,0.00,,,-99.99,,2013-01-27 08:22:00,
2013-01-27 02:31:00,30.0,18.0,-100.00,SSE,165,4.0,9.0,60,0.00,,,-99.99,,2013-01-27 08:31:00,
2013-01-27 02:41:00,30.0,18.0,-100.00,SSE,165,4.0,9.0,60,0.00,,,-99.99,,2013-01-27 08:41:00,
2013-01-27 02:52:00,30.0,18.0,-100.00,SE,135,5.0,10.0,60,0.00,,,-99.99,,2013-01-27 08:52:00,
2013-01-27 03:02:00,30.0,18.0,-100.00,SE,135,5.0,10.0,60,0.00,,,-99.99,,2013-01-27 09:02:00,
2013-01-27 03:11:00,31.0,18.0,-100.00,SSE,160,6.0,11.0,60,0.00,,,-99.99,,2013-01-27 09:11:00,
2013-01-27 03:21:00,31.0,18.0,-100.00,SSE,155,4.0,11.0,59,0.00,,,-99.99,,2013-01-27 09:21:00,
2013-01-27 03:32:00,31.0,18.0,-100.00,SSE,155,4.0,12.0,59,0.00,,,-99.99,,2013-01-27 09:32:00,
2013-01-27 03:41:00,31.0,18.0,-100.00,SSE,155,4.0,12.0,59,0.00,,,-99.99,,2013-01-27 09:41:00,
2013-01-27 03:51:00,31.0,19.0,-100.00,South,170,4.0,9.0,59,0.00,,,-99.99,,2013-01-27 09:51:00,
2013-01-27 04:01:00,31.0,19.0,-100.00,South,170,4.0,9.0,59,0.00,,,-99.99,,2013-01-27 10:01:00,
2013-01-27 04:11:00,31.0,19.0,-100.00,SSE,165,4.0,11.0,59,0.00,,,-99.99,,2013-01-27 10:11:00,
2013-01-27 04:21:00,31.0,19.0,-100.00,South,175,6.0,9.0,59,0.00,,,-99.99,,2013-01-27 10:21:00,
2013-01-27 04:31:00,32.0,20.0,-100.00,SSE,165,8.0,14.0,60,0.00,,,-99.99,,2013-01-27 10:31:00,
2013-01-27 04:41:00,32.0,20.0,-100.00,SSE,165,8.0,14.0,60,0.00,,,-99.99,,2013-01-27 10:41:00,
2013-01-27 04:51:00,32.0,20.0,-100.00,South,170,6.0,9.0,60,0.00,,,-99.99,,2013-01-27 10:51:00,
2013-01-27 05:01:00,32.0,20.0,-100.00,South,170,6.0,9.0,60,0.00,,,-99.99,,2013-01-27 11:01:00,
2013-01-27 05:11:00,32.0,20.0,-100.00,South,170,5.0,13.0,61,0.00,,,-99.99,,2013-01-27 11:11:00,
2013-01-27 05:21:00,32.0,20.0,-100.00,SSE,155,7.0,14.0,60,0.14,,,-99.99,,2013-01-27 11:21:00,
2013-01-27 05:32:00,32.0,24.0,-100.00,SSE,160,7.0,13.0,73,0.14,,,-99.99,,2013-01-27 11:32:00,
2013-01-27 05:42:00,32.0,24.0,-100.00,SSE,160,7.0,13.0,73,0.14,,,-99.99,,2013-01-27 11:42:00,
2013-01-27 05:52:00,32.0,27.0,-100.00,SSE,160,6.0,10.0,81,0.17,,,-99.99,,2013-01-27 11:52:00,
2013-01-27 06:02:00,32.0,27.0,-100.00,SSE,160,6.0,10.0,81,0.17,,,-99.99,,2013-01-27 12:02:00,
2013-01-27 06:11:00,31.0,27.0,-100.00,SSE,155,6.0,12.0,85,0.17,,,-99.99,,2013-01-27 12:11:00,
2013-01-27 06:21:00,31.0,28.0,-100.00,SSE,165,5.0,11.0,88,0.16,,,-99.99,,2013-01-27 12:21:00,
2013-01-27 06:32:00,31.0,29.0,-100.00,SE,145,6.0,12.0,93,0.16,,,-99.99,,2013-01-27 12:32:00,
2013-01-27 06:42:00,31.0,29.0,-100.00,SE,145,6.0,12.0,93,0.16,,,-99.99,,2013-01-27 12:42:00,
2013-01-27 06:52:00,31.0,30.0,-100.00,SSE,165,7.0,12.0,96,0.23,,,-99.99,,2013-01-27 12:52:00,
2013-01-27 07:02:00,31.0,30.0,-100.00,SSE,165,7.0,12.0,96,0.23,,,-99.99,,2013-01-27 13:02:00,
2013-01-27 07:11:00,31.0,31.0,-100.00,SSE,160,7.0,13.0,99,0.21,,,-99.99,,2013-01-27 13:11:00,
2013-01-27 07:22:00,31.0,31.0,-100.00,SSE,165,5.0,11.0,99,0.14,,,-99.99,,2013-01-27 13:22:00,
2013-01-27 07:32:00,31.0,31.0,-100.00,SSE,155,6.0,11.0,99,0.17,,,-99.99,,2013-01-27 13:32:00,
2013-01-27 07:42:00,31.0,31.0,-100.00,SSE,155,6.0,11.0,99,0.17,,,-99.99,,2013-01-27 13:42:00,
2013-01-27 07:52:00,31.0,31.0,-100.00,SE,140,6.0,11.0,99,0.16,,,-99.99,,2013-01-27 13:52:00,
2013-01-27 08:02:00,31.0,31.0,-100.00,SE,140,6.0,11.0,99,0.16,,,-99.99,,2013-01-27 14:02:00,
2013-01-27 08:11:00,31.0,31.0,-100.00,SSE,155,5.0,11.0,99,0.16,,,-99.99,,2013-01-27 14:11:00,
2013-01-27 08:22:00,31.0,31.0,-100.00,SSE,150,6.0,9.0,99,0.17,,,-99.99,,2013-01-27 14:22:00,
2013-01-27 08:32:00,31.0,31.0,-100.00,SSE,160,5.0,12.0,99,0.16,,,-99.99,,2013-01-27 14:32:00,
2013-01-27 08:42:00,31.0,31.0,-100.00,SSE,160,5.0,12.0,99,0.16,,,-99.99,,2013-01-27 14:42:00,
2013-01-27 08:52:00,31.0,31.0,-100.00,SE,135,6.0,12.0,99,0.18,,,-99.99,,2013-01-27 14:52:00,
2013-01-27 09:02:00,31.0,31.0,-100.00,SE,135,6.0,12.0,99,0.18,,,-99.99,,2013-01-27 15:02:00,
2013-01-27 09:11:00,31.0,31.0,-100.00,SSE,160,6.0,12.0,99,0.07,,,-99.99,,2013-01-27 15:11:00,
2013-01-27 09:22:00,31.0,31.0,-100.00,SSE,165,4.0,10.0,99,0.16,,,-99.99,,2013-01-27 15:22:00,
2013-01-27 09:32:00,32.0,31.0,-100.00,SSE,160,6.0,9.0,99,0.24,,,-99.99,,2013-01-27 15:32:00,
2013-01-27 09:42:00,32.0,31.0,-100.00,SSE,160,6.0,9.0,99,0.24,,,-99.99,,2013-01-27 15:42:00,
2013-01-27 09:52:00,32.0,32.0,-100.00,SE,140,3.0,7.0,99,0.14,,,-99.99,,2013-01-27 15:52:00,
2013-01-27 10:02:00,32.0,32.0,-100.00,SE,140,3.0,7.0,99,0.14,,,-99.99,,2013-01-27 16:02:00,
2013-01-27 10:11:00,31.0,31.0,-100.00,SE,140,5.0,11.0,99,0.16,,,-99.99,,2013-01-27 16:11:00,
2013-01-27 10:21:00,32.0,31.0,-100.00,SSE,150,6.0,9.0,99,0.16,,,-99.99,,2013-01-27 16:21:00,
2013-01-27 10:32:00,32.0,32.0,-100.00,SSE,150,6.0,10.0,99,0.00,,,-99.99,,2013-01-27 16:32:00,
2013-01-27 10:42:00,32.0,32.0,-100.00,SSE,150,6.0,10.0,99,0.00,,,-99.99,,2013-01-27 16:42:00,
2013-01-27 10:52:00,32.0,32.0,-100.00,SE,145,4.0,9.0,99,0.00,,,-99.99,,2013-01-27 16:52:00,
2013-01-27 11:02:00,32.0,32.0,-100.00,SE,145,4.0,9.0,99,0.00,,,-99.99,,2013-01-27 17:02:00,
2013-01-27 11:12:00,32.0,32.0,-100.00,SSE,160,3.0,9.0,99,0.00,,,-99.99,,2013-01-27 17:12:00,
2013-01-27 11:21:00,32.0,32.0,-100.00,South,170,2.0,6.0,99,0.00,,,-99.99,,2013-01-27 17:21:00,
2013-01-27 11:32:00,32.0,32.0,-100.00,SSE,155,2.0,9.0,99,0.00,,,-99.99,,2013-01-27 17:32:00,
2013-01-27 11:42:00,32.0,32.0,-100.00,SSE,150,4.0,8.0,99,0.00,,,-99.99,,2013-01-27 17:42:00,
2013-01-27 11:52:00,32.0,32.0,-100.00,SSE,165,4.0,8.0,99,0.00,,,-99.99,,2013-01-27 17:52:00,
2013-01-27 12:02:00,32.0,32.0,-100.00,SSE,165,4.0,8.0,99,0.00,,,-99.99,,2013-01-27 18:02:00,
2013-01-27 12:11:00,32.0,32.0,-100.00,South,170,4.0,7.0,99,0.00,,,-99.99,,2013-01-27 18:11:00,
2013-01-27 12:22:00,32.0,32.0,-100.00,SSE,150,2.0,7.0,99,0.00,,,-99.99,,2013-01-27 18:22:00,
2013-01-27 12:32:00,32.0,32.0,-100.00,SSE,160,2.0,4.0,99,0.00,,,-99.99,,2013-01-27 18:32:00,
2013-01-27 12:42:00,32.0,32.0,-100.00,SSE,160,2.0,4.0,99,0.00,,,-99.99,,2013-01-27 18:42:00,
2013-01-27 12:52:00,32.0,32.0,-100.00,SSE,150,2.0,7.0,99,0.00,,,-99.99,,2013-01-27 18:52:00,
2013-01-27 13:02:00,32.0,32.0,-100.00,SSE,150,2.0,7.0,99,0.00,,,-99.99,,2013-01-27 19:02:00,
2013-01-27 13:11:00,32.0,32.0,-100.00,SE,140,2.0,5.0,99,0.00,,,-99.99,,2013-01-27 19:11:00,
2013-01-27 13:22:00,32.0,32.0,-100.00,SE,140,3.0,4.0,99,0.14,,,-99.99,,2013-01-27 19:22:00,
2013-01-27 13:32:00,33.0,33.0,-100.00,SSE,155,2.0,5.0,99,0.00,,,-99.99,,2013-01-27 19:32:00,
2013-01-27 13:41:00,33.0,33.0,-100.00,SSE,155,2.0,5.0,99,0.00,,,-99.99,,2013-01-27 19:41:00,
2013-01-27 13:51:00,33.0,33.0,-100.00,SSE,155,2.0,-999.0,99,0.00,,,-99.99,,2013-01-27 19:51:00,
2013-01-27 14:02:00,33.0,33.0,-100.00,SSE,155,2.0,-999.0,99,0.00,,,-99.99,,2013-01-27 20:02:00,
2013-01-27 14:11:00,33.0,33.0,-100.00,SSE,155,2.0,7.0,99,0.00,,,-99.99,,2013-01-27 20:11:00,
2013-01-27 14:22:00,33.0,33.0,-100.00,SSE,165,3.0,6.0,99,0.00,,,-99.99,,2013-01-27 20:22:00,
2013-01-27 14:32:00,33.0,33.0,-100.00,SE,135,2.0,5.0,99,0.00,,,-99.99,,2013-01-27 20:32:00,
2013-01-27 14:42:00,33.0,33.0,-100.00,SE,135,2.0,5.0,99,0.00,,,-99.99,,2013-01-27 20:42:00,
2013-01-27 14:52:00,33.0,33.0,-100.00,SSE,150,3.0,6.0,99,0.00,,,-99.99,,2013-01-27 20:52:00,
2013-01-27 15:02:00,33.0,33.0,-100.00,SSE,150,3.0,6.0,99,0.00,,,-99.99,,2013-01-27 21:02:00,
2013-01-27 15:12:00,33.0,33.0,-100.00,SSE,150,4.0,9.0,99,0.00,,,-99.99,,2013-01-27 21:12:00,
2013-01-27 15:22:00,33.0,33.0,-100.00,SSE,160,6.0,11.0,99,0.00,,,-99.99,,2013-01-27 21:22:00,
2013-01-27 15:33:00,33.0,33.0,-100.00,SE,135,4.0,7.0,99,0.00,,,-99.99,,2013-01-27 21:33:00,
2013-01-27 15:42:00,33.0,33.0,-100.00,SE,135,4.0,7.0,99,0.00,,,-99.99,,2013-01-27 21:42:00,
2013-01-27 15:52:00,33.0,33.0,-100.00,SE,135,6.0,11.0,99,0.00,,,-99.99,,2013-01-27 21:52:00,
2013-01-27 16:02:00,33.0,33.0,-100.00,SE,135,6.0,11.0,99,0.00,,,-99.99,,2013-01-27 22:02:00,
2013-01-27 16:11:00,33.0,33.0,-100.00,SE,135,6.0,7.0,99,0.00,,,-99.99,,2013-01-27 22:11:00,
2013-01-27 16:22:00,33.0,33.0,-100.00,SE,130,4.0,7.0,99,0.00,,,-99.99,,2013-01-27 22:22:00,
2013-01-27 16:32:00,33.0,33.0,-100.00,SE,130,4.0,9.0,99,0.00,,,-99.99,,2013-01-27 22:32:00,
2013-01-27 16:42:00,33.0,33.0,-100.00,SE,130,4.0,9.0,99,0.00,,,-99.99,,2013-01-27 22:42:00,
2013-01-27 16:51:00,33.0,33.0,-100.00,SE,135,5.0,7.0,99,0.00,,,-99.99,,2013-01-27 22:51:00,
2013-01-27 17:02:00,33.0,33.0,-100.00,SE,135,5.0,7.0,99,0.00,,,-99.99,,2013-01-27 23:02:00,
2013-01-27 17:12:00,33.0,33.0,-100.00,SE,135,4.0,6.0,99,0.00,,,-99.99,,2013-01-27 23:12:00,
2013-01-27 17:21:00,33.0,33.0,-100.00,SE,140,4.0,6.0,99,0.00,,,-99.99,,2013-01-27 23:21:00,
2013-01-27 17:32:00,33.0,33.0,-100.00,SE,130,3.0,6.0,99,0.00,,,-99.99,,2013-01-27 23:32:00,
2013-01-27 17:41:00,33.0,33.0,-100.00,SE,130,3.0,6.0,99,0.00,,,-99.99,,2013-01-27 23:41:00,
2013-01-27 17:52:00,34.0,34.0,-100.00,SE,135,4.0,6.0,99,0.00,,,-99.99,,2013-01-27 23:52:00,
2013-01-27 18:02:00,34.0,34.0,-100.00,SE,135,4.0,6.0,99,0.00,,,-99.99,,2013-01-28 00:02:00,
2013-01-27 18:11:00,34.0,34.0,-100.00,SE,125,4.0,6.0,99,0.00,,,-99.99,,2013-01-28 00:11:00,
2013-01-27 18:21:00,34.0,34.0,-100.00,SE,125,4.0,6.0,99,0.00,,,-99.99,,2013-01-28 00:21:00,
2013-01-27 18:32:00,34.0,34.0,-100.00,SE,125,2.0,6.0,99,0.00,,,-99.99,,2013-01-28 00:32:00,
2013-01-27 18:42:00,34.0,34.0,-100.00,SE,125,2.0,6.0,99,0.00,,,-99.99,,2013-01-28 00:42:00,
2013-01-27 18:51:00,34.0,34.0,-100.00,ESE,120,2.0,4.0,99,0.00,,,-99.99,,2013-01-28 00:51:00,
2013-01-27 19:01:00,34.0,34.0,-100.00,ESE,120,2.0,4.0,99,0.00,,,-99.99,,2013-01-28 01:01:00,
2013-01-27 19:11:00,34.0,34.0,-100.00,SE,125,4.0,5.0,99,0.00,,,-99.99,,2013-01-28 01:11:00,
2013-01-27 19:21:00,34.0,34.0,-100.00,ESE,120,4.0,5.0,99,0.00,,,-99.99,,2013-01-28 01:21:00,
2013-01-27 19:33:00,34.0,34.0,-100.00,SE,135,3.0,5.0,99,0.00,,,-99.99,,2013-01-28 01:33:00,
2013-01-27 19:42:00,34.0,34.0,-100.00,SE,135,3.0,5.0,99,0.00,,,-99.99,,2013-01-28 01:42:00,
2013-01-27 19:51:00,35.0,35.0,-100.00,SE,140,3.0,5.0,99,0.00,,,-99.99,,2013-01-28 01:51:00,
2013-01-27 20:02:00,35.0,35.0,-100.00,SE,140,3.0,5.0,99,0.00,,,-99.99,,2013-01-28 02:02:00,
2013-01-27 20:11:00,35.0,35.0,-100.00,SE,140,2.0,4.0,99,0.00,,,-99.99,,2013-01-28 02:11:00,
2013-01-27 20:22:00,35.0,35.0,-100.00,SE,135,2.0,4.0,99,0.00,,,-99.99,,2013-01-28 02:22:00,
2013-01-27 20:32:00,35.0,35.0,-100.00,SSE,150,1.0,2.0,99,0.00,,,-99.99,,2013-01-28 02:32:00,
2013-01-27 20:42:00,35.0,35.0,-100.00,SSE,150,1.0,2.0,99,0.00,,,-99.99,,2013-01-28 02:42:00,
2013-01-27 20:52:00,36.0,36.0,-100.00,SSE,155,1.0,3.0,99,0.11,,,-99.99,,2013-01-28 02:52:00,
2013-01-27 21:02:00,36.0,36.0,-100.00,SSE,155,1.0,3.0,99,0.11,,,-99.99,,2013-01-28 03:02:00,
2013-01-27 21:11:00,36.0,36.0,-100.00,SSE,155,1.0,3.0,99,0.16,,,-99.99,,2013-01-28 03:11:00,
2013-01-27 21:21:00,36.0,36.0,-100.00,SSE,155,1.0,2.0,99,0.00,,,-99.99,,2013-01-28 03:21:00,
2013-01-27 21:32:00,36.0,36.0,-100.00,SE,130,3.0,4.0,99,0.17,,,-99.99,,2013-01-28 03:32:00,
2013-01-27 21:41:00,36.0,36.0,-100.00,SE,130,3.0,4.0,99,0.17,,,-99.99,,2013-01-28 03:41:00,
2013-01-27 21:52:00,37.0,37.0,-100.00,SE,130,3.0,6.0,99,0.16,,,-99.99,,2013-01-28 03:52:00,
2013-01-27 22:02:00,37.0,37.0,-100.00,SE,130,3.0,6.0,99,0.16,,,-99.99,,2013-01-28 04:02:00,
2013-01-27 22:11:00,37.0,37.0,-100.00,SE,125,4.0,6.0,99,0.00,,,-99.99,,2013-01-28 04:11:00,
2013-01-27 22:21:00,37.0,37.0,-100.00,East,95,1.0,6.0,99,0.00,,,-99.99,,2013-01-28 04:21:00,
2013-01-27 22:32:00,37.0,37.0,-100.00,NW,315,0.0,2.0,99,0.13,,,-99.99,,2013-01-28 04:32:00,
2013-01-27 22:41:00,37.0,37.0,-100.00,NW,315,0.0,2.0,99,0.13,,,-99.99,,2013-01-28 04:41:00,
2013-01-27 22:52:00,37.0,37.0,-100.00,North,5,2.0,2.0,99,0.20,,,-99.99,,2013-01-28 04:52:00,
2013-01-27 23:03:00,37.0,37.0,-100.00,North,5,2.0,2.0,99,0.20,,,-99.99,,2013-01-28 05:03:00,
2013-01-27 23:11:00,37.0,37.0,-100.00,North,0,2.0,2.0,99,0.17,,,-99.99,,2013-01-28 05:11:00,
2013-01-27 23:21:00,36.0,36.0,-100.00,North,350,2.0,3.0,99,0.17,,,-99.99,,2013-01-28 05:21:00,
2013-01-27 23:32:00,36.0,36.0,-100.00,North,0,4.0,7.0,99,0.24,,,-99.99,,2013-01-28 05:32:00,
2013-01-27 23:41:00,36.0,36.0,-100.00,North,0,4.0,7.0,99,0.24,,,-99.99,,2013-01-28 05:41:00,
2013-01-27 23:52:00,36.0,36.0,-100.00,NNE,20,0.0,3.0,99,0.17,,,-99.99,,2013-01-28 05:52:00,